Location: Boss Branch
(32.3799°N, 97.2508°W)
Time: 23:09:41
(UTC+00:00)

JUGNU - Pass Details

Date: 07 December 2024
Orbit: 834 x 861 km, 20.0° (Epoch: 19 January)

Event Time Altitude Azimuth Distance (km) Brightness Sun altitude
Exits shadow 10:32:45 14° 170° (S) 2,143 ? -34.1°
Maximum altitude 10:33:11 14° 165° (SSE) 2,137 ? -34.0°
Drops below altitude 10° 10:36:09 10° 134° (SE) 2,426 ? -33.3°
Sets 10:39:56 0° 110° (ESE) 3,364 ? -32.6°
